Location: Unspecified
(0.0000°N, 0.0000°E)
Time: 20:44:50
(UTC+01:00)

Iridium 15 - Visible Passes

Search period start: 24 February 2017 00:00
Search period end: 06 March 2017 00:00
Orbit: 776 x 779 km, 86.4° (Epoch: 24 February)

Date Brightness Start Highest point End Pass type
(mag) Time Alt. Az. Time Alt. Az. Time Alt. Az.
24 Feb 9.2 06:15:59 10° NE 06:18:59 16° E 06:22:01 10° SE visible
25 Feb 8.8 19:55:29 10° SW 19:59:30 23° W 20:03:31 10° NW visible
27 Feb 8.5 06:14:49 10° NE 06:19:03 25° E 06:23:17 10° SE visible
28 Feb 9.4 05:44:16 10° ENE 05:45:36 11° E 05:46:57 10° ESE visible
28 Feb 9.3 19:56:58 10° WSW 19:59:34 14° W 20:02:09 10° WNW visible
02 Mar 7.5 06:14:15 10° NNE 06:19:06 41° E 06:23:59 10° SSE visible
03 Mar 8.9 05:42:07 10° NE 05:45:40 19° E 05:49:12 10° SE visible
05 Mar 6.4 06:14:00 10° N 06:19:10 67° E 06:24:22 10° S visible
